Temp
-6 -5 -5 -6 -4 -5 -4 -5 -4 -4 -4 -5 -5 -4 -4 -4 -5 -5 -5 -5 -6 -5 -4 -5 -5 -4 -4 -4 -4 -4 -4 -4 -5 -5 -5 -5 -5 -5 -5 -5 -6 -6 -5 -5 -6 -7 -8 -7 -7
-6 -5 -5 -5 -5 -4 -4 -5 -5 -4 -4 -5 -5 -5 -5 -5 -4 -5 -6 -5 -7 -6 -5 -5 -5 -4 -4 -4 -4 -4 -5 -4 -5 -5 -5 -5 -5 -5 -4 -4 -5 -6 -6 -5 -6 -7 -7 -7 -7
-7 -5 -4 -6 -5 -5 -5 -5 -5 -4 -4 -5 -6 -6 -5 -5 -6 -6 -6 -7 -7 -6 -5 -5 -5 -5 -5 -4 -5 -5 -5 -5 -5 -5 -5 -5 -6 -5 -5 -5 -5 -5 -5 -5 -6 -6 -7 -6 -6
-6 -5 -5 -6 -5 -5 -5 -5 -5 -5 -5 -6 -7 -6 -6 -6 -6 -6 -7 -7 -7 -7 -7 -6 -5 -5 -5 -5 -5 -5 -5 -5 -5 -5 -5 -5 -6 -6 -5 -5 -5 -5 -5 -5 -6 -5 -6 -6 -6
-4 -4 -6 -5 -5 -5 -5 -4 -6 -5 -5 -6 -6 -6 -6 -6 -6 -6 -6 -7 -7 -7 -6 -6 -5 -5 -5 -5 -5 -5 -5 -6 -5 -5 -5 -6 -5 -5 -5 -5 -5 -6 -5 -5 -6 -6 -5 -5 -6
-7 -6 -6 -5 -5 -5 -6 -5 -5 -5 -5 -6 -6 -6 -5 -6 -7 -7 -7 -7 -7 -7 -7 -6 -5 -5 -5 -5 -5 -5 -5 -5 -5 -5 -6 -5 -5 -6 -5 -5 -5 -5 -6 -5 -5 -5 -6 -5 -5
-6 -7 -5 -4 -4 -5 -5 -5 -4 -5 -5 -5 -5 -5 -5 -5 -5 -6 -7 -7 -7 -6 -6 -6 -6 -5 -5 -5 -5 -5 -5 -5 -5 -5 -5 -5 -5 -6 -5 -6 -5 -5 -6 -6 -5 -5 -6 -6 -5
-6 -6 -6 -4 -4 -4 -5 -5 -5 -5 -5 -5 -5 -5 -5 -5 -5 -6 -6 -7 -7 -7 -6 -6 -6 -5 -5 -5 -5 -5 -5 -5 -5 -5 -5 -5 -5 -6 -5 -5 -6 -5 -6 -6 -5 -5 -5 -6 -6
-7 -6 -5 -4 -4 -5 -4 -5 -4 -4 -5 -5 -5 -5 -5 -4 -5 -5 -6 -6 -7 -7 -7 -6 -6 -6 -5 -5 -5 -5 -5 -5 -5 -5 -5 -5 -5 -5 -5 -5 -5 -6 -5 -6 -6 -6 -6 -6 -6
-6 -5 -5 -4 -4 -5 -5 -4 -4 -4 -4 -4 -5 -5 -5 -5 -4 -5 -5 -6 -6 -6 -6 -6 -5 -5 -5 -5 -5 -5 -5 -5 -5 -5 -5 -5 -5 -5 -5 -5 -5 -5 -5 -5 -5 -6 -6 -5 -6
-6 -5 -5 -4 -5 -4 -5 -4 -4 -5 -4 -5 -5 -5 -5 -5 -5 -5 -4 -5 -5 -5 -5 -5 -5 -5 -5 -5 -5 -5 -5 -5 -5 -5 -5 -5 -5 -5 -5 -5 -5 -5 -6 -5 -5 -5 -6 -5 -6
-6 -6 -6 -5 -4 -4 -4 -4 -5 -5 -5 -5 -5 -5 -5 -5 -5 -5 -5 -5 -5 -5 -5 -5 -5 -5 -5 -6 -5 -5 -5 -5 -5 -5 -6 -6 -5 -5 -5 -5 -5 -5 -5 -5 -5 -5 -6 -6 -6
-5 -6 -6 -6 -5 -4 -5 -6 -5 -5 -5 -5 -5 -5 -5 -5 -5 -5 -5 -4 -5 -5 -5 -5 -5 -5 -5 -5 -5 -5 -5 -5 -5 -6 -6 -6 -5 -5 -5 -5 -5 -5 -5 -5 -5 -5 -5 -6 -6
-6 -6 -5 -5 -5 -5 -5 -5 -5 -5 -5 -5 -5 -5 -5 -5 -5 -5 -5 -5 -5 -4 -5 -5 -5 -5 -5 -6 -6 -5 -5 -6 -6 -6 -5 -5 -5 -5 -5 -5 -5 -5 -5 -5 -5 -5 -5 -6 -6
-5 -5 -6 -6 -6 -6 -6 -5 -5 -6 -5 -5 -5 -5 -5 -5 -5 -5 -5 -5 -5 -6 -5 -5 -5 -5 -5 -5 -5 -6 -6 -7 -6 -6 -6 -6 -6 -5 -6 -5 -5 -6 -5 -6 -5 -6 -5 -5 -5
-6 -4 -5 -6 -6 -6 -6 -6 -6 -6 -6 -5 -5 -5 -5 -5 -5 -5 -5 -5 -6 -6 -6 -6 -6 -6 -6 -5 -5 -5 -5 -6 -6 -6 -7 -6 -6 -6 -7 -6 -5 -6 -6 -5 -5 -5 -5 -5 -5
-5 -6 -5 -6 -6 -6 -6 -6 -6 -6 -6 -6 -5 -5 -6 -5 -5 -5 -6 -6 -6 -6 -6 -6 -6 -6 -6 -5 -5 -5 -6 -6 -6 -6 -6 -7 -6 -6 -6 -6 -6 -6 -5 -5 -5 -5 -5 -6 -5
-5 -6 -6 -7 -7 -7 -6 -6 -6 -6 -6 -6 -6 -6 -6 -6 -6 -5 -5 -6 -6 -6 -6 -6 -6 -7 -6 -6 -6 -6 -6 -6 -6 -6 -6 -7 -7 -6 -7 -7 -6 -5 -5 -5 -5 -5 -5 -6 -6
-6 -6 -6 -6 -7 -5 -6 -5 -5 -5 -6 -6 -6 -6 -6 -6 -6 -6 -6 -6 -6 -6 -6 -6 -6 -7 -7 -6 -6 -6 -6 -6 -6 -6 -6 -6 -6 -6 -6 -7 -6 -5 -5 -6 -6 -6 -6 -5 -6
-6 -6 -6 -5 -6 -6 -6 -5 -5 -6 -6 -5 -5 -6 -6 -6 -6 -6 -6 -6 -6 -6 -6 -6 -7 -7 -7 -6 -6 -6 -6 -6 -6 -6 -7 -7 -7 -6 -6 -7 -6 -6 -6 -6 -7 -6 -6 -6 -6
-6 -6 -6 -6 -6 -6 -6 -6 -5 -5 -5 -5 -5 -5 -5 -5 -6 -6 -6 -6 -6 -6 -6 -6 -6 -7 -7 -7 -6 -6 -6 -6 -6 -6 -6 -6 -6 -6 -6 -6 -6 -6 -5 -5 -6 -6 -6 -6 -6
-6 -6 -6 -7 -7 -6 -6 -5 -5 -5 -7 -5 -5 -5 -5 -5 -5 -6 -6 -7 -7 -7 -7 -7 -7 -7 -7 -7 -7 -7 -6 -7 -7 -6 -6 -6 -6 -6 -7 -6 -6 -6 -5 -4 -5 -6 -7 -6 -6
-6 -6 -7 -5 -7 -6 -6 -6 -6 -6 -6 -6 -5 -5 -5 -5 -5 -5 -5 -6 -7 -7 -7 -7 -7 -7 -7 -7 -7 -7 -6 -7 -7 -7 -6 -6 -6 -7 -6 -6 -6 -5 -5 -5 -6 -6 -6 -6 -6
-6 -6 -6 -6 -6 -5 -5 -6 -6 -6 -7 -6 -5 -5 -5 -5 -5 -5 -5 -6 -6 -6 -7 -7 -7 -7 -7 -7 -7 -7 -6 -7 -7 -7 -7 -7 -7 -6 -7 -6 -6 -6 -6 -6 -6 -6 -6 -6 -6
-5 -5 -5 -5 -5 -4 -5 -5 -5 -5 -5 -5 -5 -5 -4 -5 -5 -5 -5 -5 -6 -6 -7 -7 -7 -7 -7 -7 -6 -6 -6 -7 -7 -7 -6 -7 -7 -7 -7 -7 -6 -6 -6 -6 -6 -6 -6 -6 -6
-5 -5 -5 -5 -4 -5 -5 -5 -5 -5 -5 -4 -5 -5 -5 -5 -5 -5 -6 -6 -6 -6 -7 -7 -7 -7 -7 -7 -7 -7 -7 -6 -7 -7 -6 -6 -7 -7 -7 -7 -7 -7 -6 -6 -6 -7 -6 -6 -6
-5 -5 -5 -6 -5 -6 -5 -5 -5 -5 -5 -5 -5 -5 -6 -6 -6 -6 -6 -7 -7 -7 -8 -8 -7 -7 -7 -7 -8 -7 -7 -7 -7 -6 -6 -6 -7 -7 -7 -7 -7 -7 -7 -7 -7 -7 -7 -7 -7
-5 -6 -6 -6 -5 -5 -5 -5 -5 -5 -5 -4 -6 -6 -6 -6 -6 -6 -6 -7 -7 -8 -8 -8 -8 -8 -8 -8 -8 -7 -7 -7 -7 -7 -6 -6 -7 -7 -7 -7 -7 -7 -7 -7 -7 -7 -7 -7 -7
-6 -6 -6 -6 -6 -5 -5 -5 -5 -6 -6 -5 -5 -7 -7 -7 -7 -6 -6 -6 -7 -8 -8 -8 -8 -8 -8 -8 -8 -7 -6 -5 -6 -7 -7 -7 -7 -8 -8 -8 -7 -7 -7 -7 -7 -7 -7 -7 -7
-7 -6 -6 -6 -5 -5 -5 -5 -6 -5 -6 -6 -6 -7 -6 -7 -7 -7 -7 -6 -6 -8 -8 -8 -8 -8 -8 -8 -8 -8 -10 -10 -10 -8 -8 -7 -7 -7 -7 -7 -7 -7 -7 -7 -7 -7 -7 -6 -6
Height
5905 5905 5902 5903 5902 5900 5897 5898 5899 5898 5899 5898 5898 5898 5900 5900 5903 5907 5906 5906 5908 5914 5918 5919 5922 5922 5923 5923 5924 5925 5926 5927 5927 5927 5927 5924 5923 5922 5921 5921 5920 5917 5915 5915 5912 5911 5910 5908 5908
5907 5907 5905 5902 5900 5899 5899 5903 5905 5902 5903 5901 5900 5899 5900 5901 5902 5904 5907 5907 5911 5917 5921 5922 5925 5926 5926 5926 5928 5928 5930 5931 5930 5929 5929 5927 5925 5924 5925 5923 5922 5921 5917 5917 5915 5914 5913 5911 5911
5908 5908 5907 5902 5904 5902 5903 5906 5907 5906 5903 5902 5904 5902 5900 5902 5901 5905 5909 5910 5914 5920 5924 5925 5927 5930 5930 5930 5932 5932 5933 5933 5932 5931 5931 5929 5927 5925 5925 5926 5924 5924 5920 5920 5918 5917 5916 5915 5915
5907 5906 5905 5904 5908 5907 5910 5911 5910 5908 5907 5908 5908 5909 5909 5905 5908 5910 5913 5914 5917 5921 5922 5927 5929 5932 5934 5932 5934 5936 5936 5935 5934 5933 5932 5931 5929 5927 5925 5927 5926 5925 5922 5922 5921 5920 5919 5918 5917
5914 5902 5905 5909 5909 5908 5907 5911 5913 5914 5914 5913 5913 5915 5914 5912 5914 5917 5918 5918 5921 5924 5927 5930 5931 5933 5935 5935 5936 5938 5937 5938 5936 5935 5934 5933 5932 5930 5928 5927 5928 5928 5927 5926 5924 5923 5921 5921 5921
5917 5912 5910 5912 5912 5912 5910 5911 5915 5917 5918 5919 5918 5919 5919 5918 5919 5922 5923 5926 5927 5929 5931 5934 5936 5936 5937 5937 5938 5939 5940 5941 5938 5937 5936 5935 5934 5934 5932 5930 5929 5929 5931 5929 5929 5927 5925 5923 5923
5920 5920 5916 5913 5915 5915 5915 5915 5919 5920 5920 5921 5921 5921 5923 5923 5925 5926 5927 5929 5932 5933 5934 5937 5938 5939 5940 5939 5941 5941 5942 5943 5939 5938 5938 5938 5936 5936 5935 5933 5931 5930 5932 5932 5931 5930 5928 5928 5927
5922 5924 5921 5917 5917 5919 5919 5920 5921 5922 5923 5923 5923 5924 5926 5927 5927 5930 5931 5933 5934 5935 5936 5937 5941 5942 5942 5942 5943 5943 5943 5943 5941 5942 5940 5941 5940 5939 5938 5937 5935 5933 5933 5933 5934 5933 5932 5932 5930
5917 5929 5926 5921 5921 5921 5921 5921 5922 5923 5924 5925 5926 5926 5928 5929 5931 5932 5934 5935 5935 5937 5938 5939 5942 5945 5945 5943 5944 5946 5945 5943 5944 5945 5943 5943 5943 5942 5941 5939 5938 5937 5935 5933 5935 5936 5937 5936 5934
5931 5935 5929 5925 5923 5923 5923 5923 5924 5926 5927 5926 5927 5928 5929 5930 5932 5934 5935 5936 5937 5939 5941 5943 5944 5947 5946 5946 5947 5946 5945 5943 5945 5945 5944 5942 5943 5942 5942 5942 5941 5940 5938 5934 5936 5938 5939 5940 5938
5937 5934 5929 5928 5927 5926 5926 5926 5925 5925 5926 5927 5929 5929 5930 5931 5932 5933 5934 5935 5938 5940 5942 5943 5946 5948 5949 5945 5947 5946 5945 5942 5945 5945 5944 5944 5946 5945 5943 5943 5942 5941 5939 5937 5938 5938 5939 5941 5941
5939 5936 5934 5931 5929 5928 5927 5926 5929 5929 5929 5928 5930 5931 5932 5933 5935 5935 5936 5938 5939 5941 5941 5944 5947 5947 5948 5946 5945 5945 5943 5943 5946 5947 5943 5944 5945 5947 5946 5946 5942 5940 5939 5936 5939 5941 5940 5942 5942
5939 5939 5937 5935 5933 5933 5932 5932 5931 5931 5931 5932 5932 5933 5933 5933 5934 5935 5936 5938 5940 5942 5943 5945 5947 5949 5947 5945 5944 5944 5944 5943 5945 5945 5943 5944 5945 5949 5947 5947 5944 5940 5937 5936 5941 5942 5943 5942 5942
5937 5943 5943 5939 5938 5936 5937 5937 5936 5935 5935 5934 5935 5934 5935 5935 5935 5936 5937 5938 5940 5942 5944 5945 5946 5946 5945 5944 5945 5946 5944 5944 5943 5943 5945 5945 5946 5946 5946 5945 5945 5942 5940 5939 5941 5942 5943 5943 5943
5929 5941 5941 5944 5941 5942 5943 5940 5939 5938 5937 5937 5937 5936 5936 5935 5935 5935 5937 5938 5940 5942 5943 5943 5944 5944 5944 5944 5945 5946 5945 5944 5942 5943 5946 5948 5948 5945 5942 5944 5943 5941 5941 5941 5941 5940 5942 5943 5942
5942 5942 5934 5942 5946 5944 5944 5940 5942 5942 5941 5940 5939 5938 5937 5937 5937 5936 5936 5938 5939 5940 5941 5941 5941 5942 5943 5943 5944 5944 5944 5942 5940 5942 5943 5943 5944 5947 5940 5941 5944 5943 5942 5945 5943 5941 5942 5942 5941
5943 5941 5942 5942 5944 5946 5947 5943 5944 5944 5945 5943 5941 5940 5939 5938 5938 5938 5938 5938 5938 5939 5939 5941 5941 5941 5941 5942 5941 5942 5942 5940 5944 5947 5944 5942 5941 5943 5943 5944 5947 5946 5942 5944 5943 5942 5941 5940 5939
5944 5941 5942 5939 5943 5946 5945 5946 5945 5947 5947 5946 5943 5941 5939 5938 5939 5940 5939 5940 5939 5939 5938 5940 5939 5940 5940 5940 5940 5940 5939 5943 5943 5947 5946 5936 5935 5943 5945 5950 5951 5949 5942 5940 5939 5938 5940 5938 5938
5945 5945 5942 5939 5939 5945 5939 5943 5945 5948 5945 5945 5944 5943 5942 5940 5939 5939 5939 5940 5939 5938 5937 5938 5938 5938 5938 5938 5938 5939 5941 5943 5943 5944 5943 5942 5941 5946 5948 5946 5948 5946 5939 5939 5937 5935 5936 5936 5937
5940 5945 5948 5943 5947 5945 5941 5944 5942 5947 5949 5949 5946 5944 5943 5942 5941 5940 5940 5940 5939 5938 5937 5937 5938 5939 5938 5937 5938 5939 5940 5942 5945 5947 5944 5944 5946 5948 5945 5947 5948 5943 5938 5937 5934 5935 5934 5936 5938
5942 5944 5947 5946 5944 5946 5942 5941 5934 5944 5945 5947 5949 5948 5945 5942 5941 5940 5940 5939 5939 5938 5938 5937 5938 5939 5939 5938 5939 5940 5941 5942 5942 5945 5945 5946 5947 5944 5943 5945 5943 5941 5937 5936 5932 5931 5934 5935 5938
5940 5940 5937 5941 5946 5948 5941 5940 5939 5946 5944 5947 5947 5948 5946 5943 5943 5939 5939 5940 5940 5939 5939 5938 5938 5939 5939 5939 5939 5940 5942 5942 5942 5942 5942 5943 5949 5946 5944 5946 5946 5942 5936 5935 5932 5933 5934 5936 5938
5940 5940 5932 5943 5946 5947 5947 5943 5942 5943 5946 5948 5943 5946 5945 5943 5942 5941 5941 5940 5941 5940 5940 5939 5939 5939 5939 5939 5939 5939 5939 5941 5941 5942 5943 5945 5945 5945 5946 5947 5946 5941 5937 5935 5934 5935 5936 5938 5939
5934 5937 5939 5940 5943 5945 5945 5942 5943 5943 5942 5940 5942 5944 5945 5942 5943 5943 5942 5939 5940 5940 5939 5940 5940 5939 5939 5939 5938 5938 5939 5937 5938 5940 5941 5942 5944 5945 5945 5947 5947 5943 5940 5938 5938 5938 5939 5941 5942
5928 5933 5935 5937 5939 5941 5942 5943 5943 5940 5938 5939 5941 5943 5942 5941 5942 5942 5941 5940 5939 5939 5940 5941 5940 5939 5939 5939 5939 5939 5938 5938 5936 5937 5938 5941 5943 5943 5944 5946 5946 5943 5941 5940 5940 5940 5939 5941 5941
5926 5930 5932 5934 5937 5940 5941 5941 5941 5941 5940 5937 5939 5941 5939 5939 5942 5943 5941 5939 5939 5940 5941 5941 5940 5939 5938 5938 5938 5938 5937 5936 5936 5935 5936 5940 5941 5942 5943 5943 5943 5944 5943 5941 5941 5941 5941 5940 5940
5923 5923 5929 5930 5932 5934 5936 5936 5937 5935 5936 5933 5933 5935 5935 5939 5942 5941 5940 5939 5939 5941 5941 5940 5940 5939 5937 5937 5936 5936 5935 5934 5934 5933 5935 5937 5939 5939 5941 5942 5943 5943 5942 5940 5941 5941 5940 5938 5937
5917 5923 5924 5927 5929 5931 5934 5931 5932 5932 5932 5928 5930 5928 5933 5935 5940 5937 5938 5938 5939 5940 5941 5940 5940 5938 5936 5936 5935 5932 5930 5930 5930 5929 5932 5935 5936 5937 5938 5940 5941 5942 5941 5940 5941 5940 5938 5936 5935
5913 5917 5919 5922 5925 5928 5931 5931 5930 5928 5926 5924 5920 5926 5929 5924 5937 5937 5937 5940 5939 5939 5939 5937 5938 5936 5936 5935 5933 5929 5924 5923 5925 5929 5929 5932 5934 5935 5936 5938 5939 5939 5937 5937 5938 5938 5936 5935 5934
5910 5913 5918 5919 5923 5924 5927 5928 5926 5925 5923 5922 5923 5924 5927 5929 5922 5931 5935 5934 5938 5937 5937 5937 5936 5936 5935 5933 5931 5928 5925 5923 5922 5926 5929 5929 5931 5933 5934 5935 5936 5935 5935 5935 5936 5935 5932 5931 5931
Wind_Speed
28 23 20 14 22 18 26 26 25 23 19 12 12 12 11 12 9 2 9 21 29 26 23 21 19 17 18 19 17 16 16 16 15 15 16 19 18 19 23 23 19 17 23 22 22 24 25 21 24
18 12 15 23 20 20 25 26 23 25 25 22 19 16 12 13 11 9 10 21 36 28 21 21 18 16 17 18 17 17 16 14 15 16 18 19 16 20 25 26 28 21 23 22 25 25 24 21 23
20 16 19 23 21 23 21 18 21 24 28 29 23 19 16 12 14 13 22 36 35 26 19 17 18 15 15 18 15 15 15 12 15 18 20 16 17 22 23 24 27 26 24 23 24 24 25 20 23
16 17 21 20 18 19 17 19 18 22 25 26 27 25 20 23 28 33 31 31 29 27 22 15 17 15 13 16 15 14 13 13 16 18 20 19 20 22 22 21 24 27 26 22 22 25 24 22 20
18 26 18 18 19 14 11 22 16 19 19 23 24 19 23 24 24 17 19 27 29 26 24 13 14 14 13 15 14 12 12 12 15 15 17 19 20 20 20 20 22 23 26 23 20 20 24 23 21
21 22 14 17 17 16 16 14 20 16 16 15 18 15 15 17 21 20 21 18 16 13 15 13 11 13 14 14 12 11 10 11 12 12 14 15 15 15 18 18 19 20 21 22 20 18 19 22 21
26 17 21 16 15 16 15 12 17 12 13 15 13 12 14 14 15 15 19 17 14 17 13 11 10 9 11 10 8 10 9 9 9 10 10 13 15 12 13 17 19 19 19 23 19 16 18 19 22
25 17 14 16 13 12 14 11 11 12 12 12 14 11 12 14 14 16 17 12 11 11 12 13 10 7 7 5 5 7 7 7 10 9 9 11 13 13 14 16 17 18 15 20 19 18 15 19 20
25 12 11 15 14 13 10 10 10 11 13 11 12 12 10 12 14 17 17 21 17 12 10 14 12 9 9 4 5 3 4 6 8 8 8 8 9 9 11 13 15 14 13 17 16 17 17 16 16
18 16 17 13 15 14 11 9 7 8 13 13 11 9 9 7 8 12 13 13 13 11 8 8 6 7 5 5 3 3 4 5 7 6 5 4 7 7 11 12 12 12 12 13 13 14 14 16 14
16 20 23 19 12 14 10 7 12 10 11 10 7 9 8 8 5 7 9 12 13 11 9 8 6 5 4 7 4 4 5 7 5 4 3 4 16 10 7 10 9 10 9 10 10 10 10 11 10
13 16 18 20 21 15 12 15 13 10 12 11 6 5 6 8 7 6 8 8 8 11 9 11 7 5 4 6 5 5 6 4 2 3 4 2 9 7 9 8 8 9 9 7 8 7 8 8 7
15 13 15 18 22 20 19 12 12 12 13 10 9 5 4 5 6 6 6 7 7 9 12 12 15 7 2 3 6 7 5 3 2 1 6 6 7 7 8 10 9 10 10 8 8 6 6 7 6
8 14 15 23 17 20 17 15 15 11 11 10 8 8 7 5 4 5 5 5 5 5 8 10 10 8 3 2 3 4 5 5 4 4 4 2 4 4 7 7 9 12 11 7 7 7 5 4 2
19 10 17 21 19 14 15 20 18 11 9 10 8 7 7 7 7 8 8 4 2 3 3 4 6 6 3 3 5 5 4 4 6 3 2 2 2 3 7 7 9 8 7 7 6 7 6 4 2
9 7 14 15 13 14 17 22 20 18 13 9 8 7 8 7 8 8 8 8 6 4 1 2 4 4 4 6 6 6 3 5 7 5 5 4 2 5 6 5 6 7 8 6 5 4 4 6 3
17 4 11 10 19 14 18 20 19 20 19 17 13 9 8 7 6 6 6 5 5 6 6 2 2 3 4 4 6 4 4 6 5 1 5 6 2 1 4 3 8 8 9 12 8 2 1 5 4
7 5 7 9 16 3 6 16 16 13 14 17 17 15 12 9 8 7 5 4 4 5 7 7 1 3 4 3 3 4 7 1 2 9 5 7 10 6 6 5 10 11 11 15 12 4 6 5 4
7 4 3 13 13 14 12 9 10 12 13 15 17 13 12 9 7 6 7 7 5 6 8 8 4 1 3 5 4 4 2 2 2 4 2 6 8 5 6 8 8 11 15 14 11 6 5 6 7
2 8 11 16 7 15 20 9 12 13 17 16 12 14 10 9 6 6 6 5 7 8 9 8 7 5 4 2 1 3 2 1 5 4 7 3 3 3 3 4 7 11 14 16 10 2 5 6 4
3 9 11 14 14 16 16 15 10 7 16 11 19 13 11 10 6 4 6 6 7 8 10 9 8 7 7 8 7 7 5 3 1 3 5 6 5 3 5 3 9 13 14 14 10 5 4 5 3
8 21 4 3 6 12 15 20 15 11 13 12 22 17 6 10 8 4 2 5 6 6 9 11 10 10 8 7 8 8 7 5 2 4 6 8 4 1 5 8 8 11 13 11 8 5 6 3 2
17 18 11 13 13 8 12 19 23 27 24 18 19 5 4 7 11 10 6 5 5 4 7 7 7 8 7 7 7 7 5 4 1 1 8 7 2 3 3 5 11 13 11 13 11 9 5 2 1
23 25 22 14 11 13 1 20 25 25 22 4 5 5 3 8 10 12 13 12 13 12 10 5 6 4 4 4 5 6 6 4 0 2 3 4 2 5 1 4 7 11 9 9 9 7 5 3 2
29 26 28 21 12 1 13 15 18 29 27 17 6 9 5 8 5 9 13 14 18 17 17 11 7 6 6 7 6 4 3 3 2 3 5 4 3 3 2 3 6 9 10 7 6 4 4 2 2
23 23 28 24 6 2 15 26 24 19 17 3 11 6 3 6 3 6 11 14 16 17 12 11 11 8 6 5 6 7 7 4 3 3 4 3 4 4 3 2 4 7 7 8 5 3 3 2 4
22 26 21 17 17 18 15 20 16 19 15 16 13 8 4 4 2 6 12 15 11 13 11 10 10 8 6 6 7 8 11 10 10 8 6 1 3 4 5 5 6 7 6 6 6 5 4 5 6
23 18 14 18 19 19 13 17 20 23 14 11 6 6 12 8 7 6 11 13 10 12 11 9 8 8 8 6 8 13 16 16 14 13 9 4 2 3 4 6 6 8 8 8 8 8 8 8 10
21 26 25 20 15 8 6 19 24 12 14 18 13 8 16 7 6 8 8 13 10 10 11 16 8 10 11 8 10 12 17 21 23 15 9 7 4 4 5 7 10 11 10 11 12 12 12 13 15
16 21 28 28 20 17 17 19 16 22 20 12 11 8 25 21 21 13 5 12 11 12 12 15 12 12 10 9 9 11 13 15 13 11 7 6 3 4 6 9 11 14 15 16 18 18 18 17 16
Wind_Direction
68 74 77 75 60 82 70 64 59 66 71 72 73 86 94 84 100 85 137 175 137 134 137 134 134 126 126 121 114 107 98 91 90 82 76 72 79 77 76 68 61 79 74 70 67 67 69 74 77
62 68 78 52 49 44 60 73 68 70 81 77 70 79 95 130 111 143 181 163 136 131 141 134 131 123 123 115 110 102 93 90 86 78 72 69 72 70 71 65 64 73 70 66 70 72 71 71 75
81 74 72 73 59 56 59 62 67 71 70 74 66 66 73 141 120 133 152 134 128 134 133 134 132 129 119 113 108 94 87 80 78 73 68 65 69 66 71 65 63 68 67 62 67 67 73 72 79
88 79 66 62 81 76 76 66 66 66 74 81 81 75 83 106 132 134 130 130 129 133 127 127 133 119 122 114 104 90 82 78 80 74 69 70 78 73 71 68 65 64 67 62 62 64 69 74 80
96 82 54 73 79 53 72 65 74 75 75 86 85 80 87 82 79 81 102 120 127 128 134 130 125 130 124 110 99 98 88 83 86 80 78 79 73 68 67 68 65 64 68 64 61 62 63 69 80
81 71 72 78 76 68 59 55 75 72 82 89 95 93 85 88 103 98 90 101 96 106 116 137 147 138 129 112 107 100 88 79 82 84 76 77 61 59 69 67 62 66 66 61 61 63 64 65 76
95 65 57 75 75 77 70 56 73 78 72 79 77 89 89 97 110 117 97 84 111 119 119 131 127 128 131 113 105 101 90 82 86 79 64 70 58 71 65 65 65 69 65 66 62 63 62 71 71
67 78 28 70 74 80 78 72 74 80 83 85 86 79 88 95 97 114 124 110 112 103 117 112 110 108 102 105 107 96 95 83 73 67 62 63 64 64 67 60 64 66 60 72 68 66 65 67 71
64 21 65 72 80 81 81 79 75 81 83 86 95 101 92 95 107 127 122 103 89 98 109 105 116 106 114 99 79 68 65 52 62 59 59 46 52 60 53 54 62 61 60 66 70 65 73 70 73
52 43 58 59 77 80 79 76 95 93 108 96 98 103 106 100 105 118 136 135 109 97 109 107 115 142 137 106 54 34 16 43 53 60 59 62 60 51 62 49 47 49 49 54 52 68 71 87 82
50 37 43 50 61 69 82 101 76 67 76 85 78 93 102 100 95 106 115 116 140 143 126 106 103 117 129 100 88 65 36 48 36 60 9 58 71 69 42 46 42 40 30 37 40 40 59 68 100
74 53 46 48 53 56 68 65 55 76 79 81 82 88 98 103 115 119 126 136 130 128 129 115 82 57 103 93 67 49 45 35 31 46 268 21 56 34 37 31 24 40 32 45 16 26 28 52 69
74 67 59 48 42 52 56 60 50 47 58 60 69 80 86 87 87 92 105 125 137 147 143 147 156 173 137 54 36 32 27 14 355 284 310 6 48 26 17 22 30 38 44 29 348 13 18 19 41
83 72 61 60 66 69 67 63 62 52 51 60 62 74 73 77 94 102 103 94 111 134 140 157 164 178 177 46 1 357 22 350 280 223 224 155 112 48 32 28 26 31 31 24 4 17 30 33 358
156 117 81 55 60 74 45 70 64 57 52 53 57 62 70 76 77 78 89 74 79 128 188 176 186 191 212 268 298 331 337 343 283 245 133 92 62 108 71 38 42 18 18 26 14 21 26 49 138
313 125 180 97 41 67 56 60 46 48 47 48 50 56 59 56 60 67 62 66 61 40 29 268 235 238 250 267 283 303 31 299 242 179 146 157 140 4 58 33 35 15 4 346 6 33 16 31 36
347 102 99 69 43 54 63 66 58 52 44 46 48 47 53 59 52 43 57 50 41 32 24 29 262 248 225 246 268 283 255 245 256 114 95 152 70 17 11 7 12 357 4 347 341 322 118 196 245
58 338 127 95 35 38 109 59 55 45 39 31 33 35 41 43 49 44 45 52 21 35 34 45 28 228 243 239 266 275 263 289 345 56 172 255 117 42 15 8 352 351 355 346 334 310 213 190 276
97 281 127 108 32 359 350 87 71 46 57 43 25 21 30 35 44 47 45 41 29 29 39 48 61 113 250 231 238 256 284 353 39 70 340 302 18 357 20 12 0 330 356 341 335 330 223 200 233
123 314 17 342 73 18 337 124 75 28 26 2 13 9 12 19 41 60 50 52 41 37 38 44 51 38 23 25 17 352 41 161 171 171 218 224 273 277 346 8 344 346 343 332 326 291 233 209 230
296 312 348 3 356 3 300 301 142 359 3 343 350 350 15 13 24 46 64 37 43 50 46 39 48 52 40 24 29 46 47 44 282 234 246 228 250 300 339 10 3 344 349 339 326 330 191 179 188
267 272 184 1 324 313 295 321 316 306 332 336 343 327 357 23 19 24 63 90 50 42 51 53 46 48 37 30 23 29 53 54 9 316 285 264 253 328 344 344 2 4 4 10 36 100 143 161 213
197 270 329 278 225 256 285 291 294 300 305 304 322 266 316 32 41 33 21 50 64 43 42 48 50 60 58 56 48 48 43 61 67 295 262 258 244 3 349 345 0 19 28 50 74 91 112 117 169
212 195 217 228 268 280 165 258 275 281 288 301 77 338 9 71 52 40 34 47 61 57 52 33 39 28 39 33 37 33 39 38 47 238 248 261 301 326 6 344 12 31 45 57 63 74 66 109 121
220 213 218 233 243 34 304 283 298 314 319 317 289 340 286 80 75 45 26 44 55 51 52 38 10 344 343 347 338 340 1 31 43 245 244 254 286 322 348 329 357 22 30 34 41 44 65 19 319
243 234 227 242 201 350 296 298 297 295 335 258 241 24 295 83 98 63 53 46 41 33 25 27 21 353 334 343 327 311 288 268 301 293 255 214 260 247 247 274 331 354 14 23 16 346 305 262 263
237 233 224 234 217 258 271 294 288 306 307 255 183 47 65 37 205 84 68 66 45 29 13 5 357 354 350 320 321 304 283 272 247 251 271 260 189 240 219 247 289 345 348 357 348 347 332 303 283
230 227 204 232 243 243 257 292 293 312 300 268 272 66 14 280 224 107 65 60 47 34 31 353 350 351 8 344 316 298 283 266 256 246 244 253 264 255 257 251 286 299 315 324 320 313 306 301 295
245 218 222 208 221 246 233 295 297 311 301 282 261 358 324 206 243 110 60 70 34 16 7 349 339 346 344 328 321 324 304 272 248 240 237 235 222 221 248 250 268 289 301 302 299 300 304 309 308
267 224 219 221 209 213 251 288 298 316 291 285 302 310 313 285 255 166 273 55 28 20 348 327 328 334 331 325 333 19 52 71 122 179 204 219 241 249 244 263 275 283 286 288 295 303 310 302 304